Time,TemperatureF,DewpointF,PressureIn,WindDirection,WindDirectionDegrees,WindSpeedMPH,WindSpeedGustMPH,Humidity,HourlyPrecipIn,Conditions,Clouds,dailyrainin,SoftwareType,DateUTC
2013-02-14 00:02:00,27.0,23.0,29.43,North,360,0.0,-999.0,86,-99.99,,,-99.99,,2013-02-14 05:02:00,
2013-02-14 00:11:00,27.0,23.0,29.43,North,360,0.0,-999.0,86,-99.99,,,-99.99,,2013-02-14 05:11:00,
2013-02-14 00:22:00,27.0,23.0,29.40,North,360,0.0,-999.0,86,-99.99,,,-99.99,,2013-02-14 05:22:00,
2013-02-14 00:32:00,27.0,23.0,29.40,North,360,0.0,-999.0,86,-99.99,,,-99.99,,2013-02-14 05:32:00,
2013-02-14 00:42:00,27.0,23.0,29.40,North,360,0.0,-999.0,86,-99.99,,,-99.99,,2013-02-14 05:42:00,
2013-02-14 00:52:00,27.0,24.0,29.40,North,360,0.0,-999.0,87,-99.99,,,-99.99,,2013-02-14 05:52:00,
2013-02-14 01:02:00,27.0,24.0,29.43,North,360,0.0,-999.0,87,-99.99,,,-99.99,,2013-02-14 06:02:00,
2013-02-14 01:11:00,27.0,24.0,29.39,North,360,0.0,-999.0,88,-99.99,,,-99.99,,2013-02-14 06:11:00,
2013-02-14 01:21:00,27.0,24.0,29.39,North,360,0.0,-999.0,88,-99.99,,,-99.99,,2013-02-14 06:21:00,
2013-02-14 01:32:00,27.0,24.0,29.42,North,360,0.0,-999.0,87,-99.99,,,-99.99,,2013-02-14 06:32:00,
2013-02-14 01:42:00,27.0,24.0,29.42,North,360,0.0,-999.0,87,-99.99,,,-99.99,,2013-02-14 06:42:00,
2013-02-14 01:52:00,27.0,24.0,29.37,North,360,0.0,-999.0,89,-99.99,,,-99.99,,2013-02-14 06:52:00,
2013-02-14 02:01:00,27.0,24.0,29.41,North,360,0.0,-999.0,89,-99.99,,,-99.99,,2013-02-14 07:01:00,
2013-02-14 02:11:00,27.0,24.0,29.41,North,360,0.0,-999.0,89,-99.99,,,-99.99,,2013-02-14 07:11:00,
2013-02-14 02:21:00,27.0,24.0,29.39,North,360,0.0,-999.0,90,-99.99,,,-99.99,,2013-02-14 07:21:00,
2013-02-14 02:32:00,26.0,23.0,29.44,North,360,0.0,-999.0,90,-99.99,,,-99.99,,2013-02-14 07:32:00,
2013-02-14 02:42:00,26.0,23.0,29.44,North,360,0.0,-999.0,90,-99.99,,,-99.99,,2013-02-14 07:42:00,
2013-02-14 02:52:00,27.0,24.0,29.42,North,360,0.0,-999.0,89,-99.99,,,-99.99,,2013-02-14 07:52:00,
2013-02-14 03:01:00,27.0,24.0,29.46,North,360,0.0,-999.0,89,-99.99,,,-99.99,,2013-02-14 08:01:00,
2013-02-14 03:11:00,27.0,24.0,29.46,North,360,0.0,-999.0,89,-99.99,,,-99.99,,2013-02-14 08:11:00,
2013-02-14 03:21:00,27.0,24.0,29.46,North,360,0.0,-999.0,89,-99.99,,,-99.99,,2013-02-14 08:21:00,
2013-02-14 03:22:00,27.0,24.0,29.45,North,360,0.0,-999.0,89,-99.99,,,-99.99,,2013-02-14 08:22:00,
2013-02-14 03:32:00,27.0,24.0,29.45,North,360,0.0,-999.0,89,-99.99,,,-99.99,,2013-02-14 08:32:00,
2013-02-14 03:43:00,27.0,24.0,29.45,North,360,0.0,-999.0,89,-99.99,,,-99.99,,2013-02-14 08:43:00,
2013-02-14 03:52:00,27.0,24.0,29.46,North,360,0.0,-999.0,89,-99.99,,,-99.99,,2013-02-14 08:52:00,
2013-02-14 04:02:00,27.0,24.0,29.46,North,360,0.0,-999.0,89,-99.99,,,-99.99,,2013-02-14 09:02:00,
2013-02-14 04:11:00,27.0,24.0,29.46,North,360,0.0,-999.0,89,-99.99,,,-99.99,,2013-02-14 09:11:00,
2013-02-14 16:22:00,34.0,20.0,29.55,ENE,64,0.0,-999.0,55,-99.99,,,-99.99,,2013-02-14 21:22:00,
2013-02-14 16:32:00,33.0,19.0,29.59,East,94,0.0,-999.0,57,-99.99,,,-99.99,,2013-02-14 21:32:00,
2013-02-14 16:42:00,33.0,19.0,29.59,East,94,0.0,-999.0,57,-99.99,,,-99.99,,2013-02-14 21:42:00,
2013-02-14 16:52:00,32.0,19.0,29.59,East,94,0.0,-999.0,57,-99.99,,,-99.99,,2013-02-14 21:52:00,
2013-02-14 17:02:00,32.0,19.0,29.59,East,94,0.0,-999.0,57,-99.99,,,-99.99,,2013-02-14 22:02:00,
2013-02-14 17:11:00,32.0,19.0,29.59,East,94,0.0,-999.0,57,-99.99,,,-99.99,,2013-02-14 22:11:00,
2013-02-14 17:21:00,32.0,20.0,29.57,East,94,0.0,-999.0,60,-99.99,,,-99.99,,2013-02-14 22:21:00,
2013-02-14 17:32:00,31.0,20.0,29.60,East,94,0.0,-999.0,62,-99.99,,,-99.99,,2013-02-14 22:32:00,
2013-02-14 17:42:00,31.0,20.0,29.60,East,94,0.0,-999.0,62,-99.99,,,-99.99,,2013-02-14 22:42:00,
2013-02-14 17:52:00,30.0,20.0,29.57,East,94,0.0,-999.0,65,-99.99,,,-99.99,,2013-02-14 22:52:00,
2013-02-14 18:01:00,30.0,20.0,29.62,East,94,0.0,-999.0,65,-99.99,,,-99.99,,2013-02-14 23:01:00,
2013-02-14 18:11:00,30.0,20.0,29.62,East,94,0.0,-999.0,65,-99.99,,,-99.99,,2013-02-14 23:11:00,
2013-02-14 18:21:00,30.0,20.0,29.58,East,94,0.0,-999.0,65,-99.99,,,-99.99,,2013-02-14 23:21:00,
2013-02-14 18:32:00,30.0,21.0,29.62,East,94,0.0,-999.0,69,-99.99,,,-99.99,,2013-02-14 23:32:00,
2013-02-14 18:42:00,30.0,21.0,29.62,East,94,0.0,-999.0,69,-99.99,,,-99.99,,2013-02-14 23:42:00,
2013-02-14 18:52:00,30.0,21.0,29.60,East,94,0.0,-999.0,70,-99.99,,,-99.99,,2013-02-14 23:52:00,
2013-02-14 19:01:00,29.0,20.0,29.64,East,94,0.0,-999.0,70,-99.99,,,-99.99,,2013-02-15 00:01:00,
2013-02-14 19:11:00,29.0,20.0,29.64,East,94,0.0,-999.0,70,-99.99,,,-99.99,,2013-02-15 00:11:00,
2013-02-14 19:22:00,29.0,22.0,29.60,East,94,0.0,-999.0,74,-99.99,,,-99.99,,2013-02-15 00:22:00,
2013-02-14 19:32:00,28.0,21.0,29.63,East,94,0.0,-999.0,75,-99.99,,,-99.99,,2013-02-15 00:32:00,
2013-02-14 19:42:00,28.0,21.0,29.63,East,94,0.0,-999.0,75,-99.99,,,-99.99,,2013-02-15 00:42:00,
2013-02-14 19:52:00,28.0,22.0,29.60,East,94,0.0,-999.0,78,-99.99,,,-99.99,,2013-02-15 00:52:00,
2013-02-14 20:02:00,27.0,21.0,29.64,East,94,0.0,-999.0,77,-99.99,,,-99.99,,2013-02-15 01:02:00,
2013-02-14 20:11:00,27.0,21.0,29.64,East,94,0.0,-999.0,77,-99.99,,,-99.99,,2013-02-15 01:11:00,
2013-02-14 20:21:00,27.0,21.0,29.60,East,94,0.0,-999.0,77,-99.99,,,-99.99,,2013-02-15 01:21:00,
2013-02-14 20:32:00,26.0,20.0,29.64,East,94,0.0,-999.0,78,-99.99,,,-99.99,,2013-02-15 01:32:00,
2013-02-14 20:42:00,26.0,20.0,29.64,East,94,0.0,-999.0,78,-99.99,,,-99.99,,2013-02-15 01:42:00,
2013-02-14 20:52:00,25.0,19.0,29.59,East,94,0.0,-999.0,78,-99.99,,,-99.99,,2013-02-15 01:52:00,
2013-02-14 21:01:00,24.0,18.0,29.63,East,94,0.0,-999.0,79,-99.99,,,-99.99,,2013-02-15 02:01:00,
2013-02-14 21:11:00,24.0,18.0,29.63,East,94,0.0,-999.0,79,-99.99,,,-99.99,,2013-02-15 02:11:00,
2013-02-14 21:21:00,25.0,19.0,29.59,East,94,0.0,-999.0,78,-99.99,,,-99.99,,2013-02-15 02:21:00,
2013-02-14 21:32:00,24.0,19.0,29.63,East,94,0.0,-999.0,80,-99.99,,,-99.99,,2013-02-15 02:32:00,
2013-02-14 21:42:00,24.0,19.0,29.63,East,94,0.0,-999.0,80,-99.99,,,-99.99,,2013-02-15 02:42:00,
2013-02-14 21:52:00,25.0,20.0,29.59,East,94,0.0,-999.0,81,-99.99,,,-99.99,,2013-02-15 02:52:00,
2013-02-14 22:02:00,25.0,20.0,29.59,East,94,0.0,-999.0,81,-99.99,,,-99.99,,2013-02-15 03:02:00,
2013-02-14 22:11:00,25.0,20.0,29.59,East,94,0.0,-999.0,81,-99.99,,,-99.99,,2013-02-15 03:11:00,
2013-02-14 22:22:00,24.0,19.0,29.59,East,94,0.0,-999.0,81,-99.99,,,-99.99,,2013-02-15 03:22:00,
2013-02-14 22:32:00,24.0,19.0,29.62,East,94,0.0,-999.0,81,-99.99,,,-99.99,,2013-02-15 03:32:00,
2013-02-14 22:42:00,24.0,19.0,29.62,East,94,0.0,-999.0,81,-99.99,,,-99.99,,2013-02-15 03:42:00,
2013-02-14 22:52:00,24.0,19.0,29.59,East,94,0.0,-999.0,82,-99.99,,,-99.99,,2013-02-15 03:52:00,
2013-02-14 23:01:00,24.0,19.0,29.62,East,94,0.0,-999.0,82,-99.99,,,-99.99,,2013-02-15 04:01:00,
2013-02-14 23:11:00,24.0,19.0,29.62,East,94,0.0,-999.0,82,-99.99,,,-99.99,,2013-02-15 04:11:00,
2013-02-14 23:21:00,24.0,19.0,29.59,East,94,0.0,-999.0,82,-99.99,,,-99.99,,2013-02-15 04:21:00,
2013-02-14 23:32:00,24.0,20.0,29.62,East,94,0.0,-999.0,83,-99.99,,,-99.99,,2013-02-15 04:32:00,
2013-02-14 23:42:00,24.0,20.0,29.62,East,94,0.0,-999.0,83,-99.99,,,-99.99,,2013-02-15 04:42:00,
2013-02-14 23:52:00,24.0,20.0,29.63,East,94,0.0,-999.0,84,-99.99,,,-99.99,,2013-02-15 04:52:00,